Flag for Mexico Weather past 2 weeks in Mexico City, Federal District, Mexico

Now
61 °F

Passing clouds.


Feels Like: 61 °F
Forecast: 56 / 74 °F
Wind: 7 mph from West

Location: Mexico City / Licenci

Current Time: Aug 3, 2015 at 4:06:42 AM

Latest Report: Aug 3, 2015 at 2:52 AM


Visibility: 10 mi

Pressure: 30.30 "Hg (23.25 "Hg at 2241m altitude)

Humidity: 72%

Dew point: 52 °F

Location of Mexico CityLocation

Historic Weather in Mexico City — Graph

°F

Mexico City temperature yesterday

Maximum temperature yesterday: 77 °F (at 3:46 PM)
Minimum temperature yesterday: 59 °F (at 5:46 AM)
Average temperature yesterday: 66 °F

Past Weeks' High & Low Weather Summary

 TemperatureHumidityPressure
High81 °F (Jul 26, 5:48 PM)94% (Jul 19, 5:45 AM)30.45 "Hg (Jul 19, 5:45 AM)
Low54 °F (Jul 25, 5:46 AM)20% (Jul 26, 6:48 PM)29.63 "Hg (Aug 2, 3:46 PM)
Average65 °F61%30.19 "Hg
* Reported Jul 19 2:48 AM — Aug 3 2:52 AM, Mexico City, Weather by CustomWeather, © 2015

Note: Actual official high and low records may vary slightly from our data, if they occured in-between our weather recording intervals... More about our weather records

Advertising

Mexico City weather history for previous 24 hours

 ConditionsComfort  
Time TempWeatherWind HumidityBarometerVisibility
2:52 AM
Mon, Aug 3
61 °FPassing clouds.7 mph72%30.30 "Hg10 mi
1:52 AM63 °FPassing clouds.6 mph73%30.31 "Hg10 mi
11:45 PM
Sun, Aug 2
64 °FClear.6 mph64%30.31 "Hg11 mi
7:45 PM68 °FBroken clouds.6 mph49%30.23 "Hg8 mi
6:00 PM66 °FThundershowers. Mostly cloudy.22 mph56%30.22 "Hg6 mi
5:06 PM75 °FSleet. Cloudy.N/A41%30.20 "HgN/A
3:46 PM77 °FBroken clouds.3 mph28%29.63 "Hg7 mi
1:47 PM75 °FScattered clouds.3 mph39%30.27 "Hg7 mi
12:52 PM73 °FPassing clouds.5 mph44%29.72 "Hg7 mi
12:15 PM70 °FSunny.7 mph50%30.30 "Hg7 mi
11:49 AM70 °FSunny.7 mph50%29.76 "Hg7 mi
11:37 AM70 °FSleet. Cloudy.N/A53%30.31 "HgN/A
10:45 AM66 °FPassing clouds.No wind60%30.31 "Hg7 mi
10:23 AM66 °FScattered clouds.5 mph60%30.31 "Hg7 mi
9:45 AM63 °FScattered clouds.5 mph68%29.83 "Hg10 mi
9:20 AM63 °FScattered clouds.7 mph73%30.31 "Hg10 mi
8:45 AM61 °FPartly sunny.6 mph72%30.30 "Hg10 mi
8:20 AM61 °FPartly sunny.No wind72%30.30 "Hg10 mi
7:45 AM61 °FPassing clouds.5 mph72%30.29 "Hg10 mi
7:21 AM59 °FPassing clouds.6 mph77%30.29 "Hg10 mi
6:51 AM59 °FPassing clouds.3 mph77%29.80 "Hg10 mi
5:46 AM59 °FPassing clouds.5 mph72%30.28 "Hg12 mi
4:48 AM61 °FPassing clouds.5 mph68%30.28 "Hg12 mi
Weather by CustomWeather, © 2015

See weather overviewHow to use our weather pages